| time (UTC) | temp F | wind direction | speed knots | gust knots | rain 1hr in | rain 24hr in | rain mn in | humidity % | barometer mb |
| 20260507030538 | 52 | 0 | 0.0 | 1.7 | 0.00 | 0.19 | 0.19 | 79 | 1011.3 |
| 20260507030050 | 52 | 0 | 0.0 | 1.7 | 0.00 | 0.19 | 0.19 | 79 | 1011.0 |
| 20260507025537 | 52 | 0 | 0.0 | 1.7 | 0.00 | 0.19 | 0.19 | 78 | 1011.1 |
| 20260507025039 | 52 | 343 | 0.0 | 3.5 | 0.00 | 0.19 | 0.19 | 78 | 1011.0 |
| 20260507024551 | 52 | 0 | 0.0 | 3.5 | 0.00 | 0.19 | 0.19 | 79 | 1011.3 |
| 20260507024040 | 52 | 24 | 0.0 | 2.6 | 0.00 | 0.19 | 0.19 | 79 | 1011.3 |
| 20260507023540 | 52 | 326 | 0.0 | 2.6 | 0.00 | 0.19 | 0.19 | 79 | 1011.4 |
| 20260507023047 | 52 | 0 | 0.0 | 2.6 | 0.00 | 0.19 | 0.19 | 79 | 1011.1 |
| 20260507022537 | 52 | 0 | 0.0 | 2.6 | 0.00 | 0.19 | 0.19 | 80 | 1011.2 |
| 20260507022037 | 52 | 0 | 0.0 | 2.6 | 0.00 | 0.19 | 0.19 | 79 | 1011.2 |
| 20260507021547 | 52 | 0 | 0.0 | 2.6 | 0.00 | 0.19 | 0.19 | 79 | 1011.3 |
| 20260507021039 | 52 | 285 | 0.0 | 2.6 | 0.00 | 0.19 | 0.19 | 79 | 1011.5 |
| 20260507020540 | 52 | 295 | 0.0 | 3.5 | 0.00 | 0.19 | 0.19 | 79 | 1011.6 |
| 20260507015542 | 52 | 0 | 0.0 | 2.6 | 0.00 | 0.19 | 0.19 | 79 | 1011.7 |
| 20260507015039 | 52 | 0 | 0.0 | 3.5 | 0.00 | 0.19 | 0.19 | 79 | 1011.5 |
| 20260507014557 | 52 | 0 | 0.0 | 3.5 | 0.00 | 0.19 | 0.19 | 79 | 1011.5 |
| 20260507014040 | 52 | 0 | 0.0 | 3.5 | 0.00 | 0.19 | 0.19 | 79 | 1011.8 |
| 20260507013536 | 52 | 0 | 0.9 | 4.3 | 0.00 | 0.19 | 0.19 | 79 | 1011.9 |
| 20260507013050 | 52 | 292 | 0.0 | 4.3 | 0.00 | 0.19 | 0.19 | 79 | 1011.8 |
| 20260507012643 | 53 | 322 | 0.0 | 6.1 | 0.00 | 0.19 | 0.19 | 79 | 1011.5 |
| 20260507012040 | 53 | 9 | 1.7 | 6.1 | 0.00 | 0.19 | 0.19 | 79 | 1011.7 |
| 20260507011543 | 53 | 342 | 0.9 | 4.3 | 0.00 | 0.19 | 0.19 | 79 | 1011.6 |
| 20260507011038 | 53 | 39 | 0.9 | 4.3 | 0.00 | 0.19 | 0.19 | 80 | 1011.5 |
| 20260507010539 | 53 | 351 | 0.0 | 5.2 | 0.00 | 0.19 | 0.19 | 79 | 1011.5 |
| 20260507010058 | 53 | 14 | 0.9 | 6.1 | 0.00 | 0.19 | 0.19 | 79 | 1011.5 |
| 20260507005538 | 53 | 14 | 1.7 | 6.1 | 0.00 | 0.19 | 0.19 | 80 | 1011.3 |
| 20260507005037 | 53 | 348 | 0.0 | 7.8 | 0.00 | 0.19 | 0.19 | 80 | 1011.4 |
| 20260507004550 | 54 | 5 | 1.7 | 7.8 | 0.00 | 0.19 | 0.19 | 80 | 1011.1 |
| 20260507004039 | 54 | 27 | 0.9 | 7.8 | 0.00 | 0.19 | 0.19 | 80 | 1010.9 |
| 20260507003540 | 54 | 20 | 2.6 | 7.8 | 0.00 | 0.19 | 0.19 | 80 | 1010.6 |
| 20260507003046 | 54 | 38 | 0.9 | 3.5 | 0.00 | 0.19 | 0.19 | 80 | 1010.4 |
| 20260507002540 | 54 | 0 | 0.9 | 4.3 | 0.00 | 0.19 | 0.19 | 81 | 1010.5 |
| 20260507002040 | 55 | 0 | 0.9 | 4.3 | 0.00 | 0.19 | 0.19 | 81 | 1010.5 |
| 20260507001554 | 55 | 0 | 0.0 | 2.6 | 0.00 | 0.19 | 0.19 | 81 | 1010.2 |
| 20260507001038 | 55 | 355 | 0.0 | 6.1 | 0.00 | 0.19 | 0.19 | 81 | 1010.1 |
| 20260507000541 | 55 | 0 | 0.9 | 6.1 | 0.00 | 0.19 | 0.19 | 81 | 1010.0 |
| 20260507000048 | 55 | 279 | 0.0 | 6.1 | 0.00 | 0.19 | 0.19 | 81 | 1009.9 |
| 20260506235540 | 55 | 269 | 1.7 | 5.2 | 0.00 | 0.19 | 0.19 | 81 | 1009.8 |
| 20260506235040 | 55 | 326 | 0.9 | 6.1 | 0.00 | 0.19 | 0.19 | 80 | 1009.8 |
| 20260506234547 | 55 | 341 | 0.9 | 6.1 | 0.00 | 0.19 | 0.19 | 80 | 1009.8 |
| 20260506234037 | 55 | 323 | 0.0 | 7.8 | 0.00 | 0.19 | 0.19 | 81 | 1009.6 |
| 20260506233538 | 55 | 0 | 2.6 | 9.6 | 0.00 | 0.19 | 0.19 | 80 | 1009.7 |
| 20260506233050 | 55 | 268 | 3.5 | 10.4 | 0.00 | 0.19 | 0.19 | 80 | 1009.7 |
| 20260506232537 | 56 | 292 | 0.9 | 10.4 | 0.00 | 0.19 | 0.19 | 81 | 1009.7 |
| 20260506232040 | 56 | 18 | 3.5 | 10.4 | 0.00 | 0.19 | 0.19 | 80 | 1009.6 |
| 20260506231604 | 56 | 72 | 0.9 | 7.0 | 0.00 | 0.19 | 0.19 | 81 | 1009.3 |
| 20260506231041 | 56 | 62 | 1.7 | 7.0 | 0.00 | 0.19 | 0.19 | 81 | 1009.3 |
| 20260506230541 | 56 | 302 | 0.9 | 10.4 | 0.00 | 0.19 | 0.19 | 81 | 1009.1 |
| 20260506230106 | 56 | 309 | 1.7 | 10.4 | 0.00 | 0.19 | 0.19 | 81 | 1008.9 |
| 20260506225538 | 57 | 348 | 2.6 | 10.4 | 0.00 | 0.19 | 0.19 | 80 | 1008.9 |
| 20260506225039 | 57 | 0 | 1.7 | 9.6 | 0.00 | 0.19 | 0.19 | 80 | 1008.8 |
| 20260506224550 | 57 | 323 | 2.6 | 10.4 | 0.00 | 0.19 | 0.19 | 80 | 1008.8 |
| 20260506224040 | 58 | 313 | 2.6 | 10.4 | 0.00 | 0.19 | 0.19 | 80 | 1008.8 |
| 20260506223543 | 59 | 318 | 1.7 | 10.4 | 0.00 | 0.19 | 0.19 | 81 | 1008.6 |
| 20260506223049 | 59 | 330 | 1.7 | 13.9 | 0.00 | 0.19 | 0.19 | 80 | 1008.3 |
| 20260506222540 | 60 | 0 | 2.6 | 13.9 | 0.00 | 0.19 | 0.19 | 79 | 1008.3 |
| 20260506222042 | 61 | 298 | 2.6 | 9.6 | 0.00 | 0.19 | 0.19 | 78 | 1008.2 |
| 20260506221608 | 63 | 360 | 0.9 | 4.3 | 0.00 | 0.19 | 0.19 | 82 | 1008.0 |
| 20260506221042 | 63 | 238 | 1.7 | 5.2 | 0.00 | 0.19 | 0.19 | 82 | 1007.7 |
| 20260506220537 | 63 | 245 | 0.9 | 9.6 | 0.00 | 0.19 | 0.19 | 81 | 1007.6 |
| 20260506220108 | 64 | 0 | 2.6 | 9.6 | 0.00 | 0.19 | 0.19 | 80 | 1007.4 |
| 20260506215539 | 64 | 279 | 3.5 | 9.6 | 0.00 | 0.19 | 0.19 | 79 | 1007.4 |
| 20260506215037 | 64 | 317 | 2.6 | 9.6 | 0.00 | 0.19 | 0.19 | 80 | 1007.1 |
| 20260506214549 | 65 | 273 | 1.7 | 10.4 | 0.00 | 0.19 | 0.19 | 81 | 1007.0 |
| 20260506214041 | 65 | 240 | 1.7 | 10.4 | 0.00 | 0.19 | 0.19 | 81 | 1007.0 |
| 20260506213540 | 65 | 237 | 1.7 | 7.8 | 0.00 | 0.19 | 0.19 | 82 | 1006.9 |
| 20260506213104 | 65 | 209 | 3.5 | 7.0 | 0.00 | 0.19 | 0.19 | 82 | 1006.8 |
| 20260506212540 | 65 | 257 | 2.6 | 6.1 | 0.00 | 0.19 | 0.19 | 83 | 1006.7 |
| 20260506212039 | 64 | 246 | 0.9 | 6.1 | 0.00 | 0.19 | 0.19 | 84 | 1006.7 |
| 20260506211548 | 64 | 264 | 2.6 | 5.2 | 0.00 | 0.19 | 0.19 | 84 | 1006.6 |
| 20260506211039 | 64 | 205 | 1.7 | 7.0 | 0.00 | 0.19 | 0.19 | 84 | 1006.7 |
| 20260506210539 | 64 | 192 | 1.7 | 7.0 | 0.00 | 0.19 | 0.19 | 84 | 1006.6 |
| 20260506210057 | 64 | 197 | 1.7 | 7.0 | 0.00 | 0.19 | 0.19 | 83 | 1006.6 |
| 20260506205539 | 64 | 202 | 1.7 | 7.0 | 0.00 | 0.19 | 0.19 | 83 | 1006.4 |
| 20260506205039 | 64 | 187 | 1.7 | 7.0 | 0.00 | 0.19 | 0.19 | 83 | 1006.4 |
| 20260506204556 | 64 | 229 | 0.9 | 7.8 | 0.00 | 0.19 | 0.19 | 83 | 1006.4 |
| 20260506204038 | 64 | 218 | 3.5 | 7.8 | 0.00 | 0.19 | 0.19 | 83 | 1006.4 |
| 20260506203542 | 64 | 265 | 0.9 | 6.1 | 0.00 | 0.19 | 0.19 | 83 | 1006.3 |
| 20260506203047 | 64 | 251 | 0.9 | 7.8 | 0.00 | 0.19 | 0.19 | 83 | 1006.3 |
| 20260506202540 | 64 | 238 | 2.6 | 7.8 | 0.00 | 0.19 | 0.19 | 83 | 1006.4 |
| 20260506202040 | 64 | 189 | 2.6 | 7.0 | 0.00 | 0.19 | 0.19 | 84 | 1006.2 |
| 20260506201550 | 64 | 201 | 2.6 | 7.0 | 0.00 | 0.19 | 0.19 | 84 | 1006.3 |
| 20260506201041 | 64 | 242 | 2.6 | 6.1 | 0.00 | 0.19 | 0.19 | 84 | 1006.4 |
| 20260506200539 | 63 | 202 | 2.6 | 7.0 | 0.00 | 0.19 | 0.19 | 84 | 1006.3 |
| 20260506200045 | 63 | 175 | 2.6 | 8.7 | 0.00 | 0.19 | 0.19 | 84 | 1006.4 |
| 20260506195539 | 63 | 242 | 3.5 | 8.7 | 0.00 | 0.19 | 0.19 | 83 | 1006.4 |
| 20260506195039 | 63 | 212 | 2.6 | 7.8 | 0.00 | 0.19 | 0.19 | 84 | 1006.5 |
| 20260506194550 | 63 | 193 | 1.7 | 9.6 | 0.00 | 0.19 | 0.19 | 84 | 1006.5 |
| 20260506194038 | 63 | 160 | 2.6 | 9.6 | 0.00 | 0.19 | 0.19 | 84 | 1006.4 |
| 20260506193539 | 63 | 210 | 1.7 | 7.0 | 0.00 | 0.19 | 0.19 | 84 | 1006.5 |
| 20260506193048 | 63 | 157 | 3.5 | 8.7 | 0.00 | 0.19 | 0.19 | 84 | 1006.5 |
| 20260506192539 | 63 | 221 | 2.6 | 8.7 | 0.00 | 0.19 | 0.19 | 85 | 1006.5 |
| 20260506192039 | 63 | 243 | 3.5 | 8.7 | 0.00 | 0.19 | 0.19 | 85 | 1006.6 |
| 20260506191549 | 63 | 234 | 3.5 | 8.7 | 0.00 | 0.19 | 0.19 | 85 | 1006.6 |
| 20260506191040 | 62 | 216 | 3.5 | 9.6 | 0.00 | 0.19 | 0.19 | 85 | 1006.8 |
| 20260506190542 | 62 | 196 | 3.5 | 9.6 | 0.00 | 0.19 | 0.19 | 85 | 1006.8 |
| 20260506190052 | 62 | 190 | 3.5 | 8.7 | 0.00 | 0.19 | 0.19 | 85 | 1006.8 |
| 20260506185539 | 62 | 185 | 2.6 | 12.2 | 0.00 | 0.19 | 0.19 | 85 | 1006.9 |
| 20260506185036 | 62 | 240 | 2.6 | 12.2 | 0.00 | 0.19 | 0.19 | 86 | 1006.8 |
| 20260506184559 | 62 | 204 | 3.5 | 7.0 | 0.00 | 0.19 | 0.19 | 86 | 1006.8 |
| 20260506184039 | 62 | 275 | 2.6 | 7.0 | 0.00 | 0.19 | 0.19 | 87 | 1006.8 |
| 20260506183541 | 62 | 196 | 2.6 | 7.8 | 0.00 | 0.19 | 0.19 | 87 | 1006.7 |
| 20260506183048 | 62 | 211 | 1.7 | 7.8 | 0.00 | 0.19 | 0.19 | 88 | 1006.6 |
| 20260506182540 | 62 | 234 | 2.6 | 7.8 | 0.00 | 0.19 | 0.19 | 88 | 1006.6 |
| 20260506182037 | 62 | 187 | 1.7 | 7.8 | 0.00 | 0.19 | 0.19 | 89 | 1006.7 |
| 20260506181548 | 61 | 245 | 0.0 | 7.0 | 0.00 | 0.19 | 0.19 | 89 | 1006.7 |
| 20260506181037 | 61 | 172 | 2.6 | 7.0 | 0.00 | 0.19 | 0.19 | 89 | 1006.7 |
| 20260506180540 | 61 | 130 | 2.6 | 7.0 | 0.00 | 0.19 | 0.19 | 89 | 1007.0 |
| 20260506180058 | 61 | 219 | 1.7 | 6.1 | 0.01 | 0.19 | 0.19 | 89 | 1007.0 |
| 20260506175540 | 61 | 200 | 1.7 | 7.0 | 0.01 | 0.19 | 0.19 | 89 | 1007.1 |
| 20260506175050 | 61 | 214 | 3.5 | 9.6 | 0.01 | 0.19 | 0.19 | 89 | 1007.0 |
| 20260506174547 | 61 | 240 | 3.5 | 9.6 | 0.01 | 0.19 | 0.19 | 89 | 1007.0 |
| 20260506174039 | 61 | 184 | 0.9 | 5.2 | 0.01 | 0.19 | 0.19 | 89 | 1007.1 |
| 20260506173539 | 61 | 225 | 1.7 | 6.1 | 0.01 | 0.19 | 0.19 | 89 | 1007.1 |
| 20260506173050 | 61 | 227 | 1.7 | 6.1 | 0.01 | 0.19 | 0.19 | 89 | 1007.0 |
| 20260506172539 | 61 | 231 | 0.9 | 5.2 | 0.01 | 0.19 | 0.19 | 89 | 1007.0 |
| 20260506172043 | 61 | 202 | 1.7 | 5.2 | 0.01 | 0.19 | 0.19 | 89 | 1007.0 |
| 20260506171557 | 61 | 213 | 0.9 | 7.8 | 0.01 | 0.19 | 0.19 | 88 | 1007.1 |
| 20260506171039 | 61 | 216 | 0.9 | 7.8 | 0.01 | 0.19 | 0.19 | 88 | 1007.2 |
| 20260506170536 | 61 | 217 | 2.6 | 7.8 | 0.01 | 0.19 | 0.19 | 88 | 1007.2 |
| 20260506170057 | 61 | 227 | 3.5 | 12.2 | 0.00 | 0.18 | 0.18 | 87 | 1007.3 |
| 20260506165538 | 61 | 194 | 4.3 | 12.2 | 0.00 | 0.18 | 0.18 | 86 | 1007.2 |
| 20260506165040 | 61 | 225 | 5.2 | 12.2 | 0.00 | 0.18 | 0.18 | 86 | 1007.3 |
| 20260506164553 | 61 | 155 | 4.3 | 12.2 | 0.00 | 0.18 | 0.18 | 86 | 1007.3 |
| 20260506164040 | 61 | 223 | 5.2 | 12.2 | 0.00 | 0.18 | 0.18 | 85 | 1007.2 |
| 20260506163539 | 61 | 202 | 5.2 | 12.2 | 0.00 | 0.18 | 0.18 | 86 | 1007.2 |
| 20260506163052 | 61 | 194 | 4.3 | 10.4 | 0.00 | 0.18 | 0.18 | 86 | 1007.2 |
| 20260506162540 | 61 | 171 | 3.5 | 11.3 | 0.00 | 0.18 | 0.18 | 86 | 1007.1 |
| 20260506162038 | 61 | 194 | 2.6 | 11.3 | 0.00 | 0.18 | 0.18 | 86 | 1007.0 |
| 20260506161553 | 61 | 165 | 3.5 | 11.3 | 0.01 | 0.18 | 0.18 | 86 | 1007.3 |
| 20260506161039 | 61 | 180 | 2.6 | 10.4 | 0.01 | 0.18 | 0.18 | 86 | 1007.3 |
| 20260506160539 | 60 | 222 | 3.5 | 10.4 | 0.02 | 0.18 | 0.18 | 86 | 1007.1 |
| 20260506160100 | 60 | 179 | 1.7 | 8.7 | 0.02 | 0.18 | 0.18 | 87 | 1007.2 |
| 20260506155538 | 60 | 169 | 2.6 | 8.7 | 0.03 | 0.18 | 0.18 | 87 | 1007.2 |
| 20260506155039 | 60 | 214 | 3.5 | 7.8 | 0.03 | 0.18 | 0.18 | 87 | 1007.2 |
| 20260506154553 | 60 | 128 | 2.6 | 7.8 | 0.04 | 0.18 | 0.18 | 87 | 1007.1 |
| 20260506154039 | 60 | 191 | 1.7 | 8.7 | 0.04 | 0.18 | 0.18 | 87 | 1007.0 |
| 20260506153538 | 60 | 232 | 2.6 | 8.7 | 0.05 | 0.18 | 0.18 | 88 | 1006.9 |
| 20260506153053 | 60 | 244 | 0.9 | 5.2 | 0.05 | 0.18 | 0.18 | 88 | 1006.7 |
| 20260506152541 | 60 | 0 | 0.0 | 7.0 | 0.05 | 0.18 | 0.18 | 88 | 1006.7 |
| 20260506152039 | 60 | 249 | 0.9 | 7.8 | 0.06 | 0.18 | 0.18 | 88 | 1006.8 |
| 20260506151550 | 60 | 185 | 0.9 | 7.8 | 0.05 | 0.17 | 0.17 | 88 | 1006.9 |
| 20260506151039 | 60 | 237 | 1.7 | 5.2 | 0.05 | 0.17 | 0.17 | 87 | 1007.0 |
| 20260506150538 | 60 | 227 | 0.0 | 8.7 | 0.04 | 0.16 | 0.16 | 87 | 1007.0 |
| 20260506150054 | 60 | 0 | 0.9 | 8.7 | 0.04 | 0.16 | 0.16 | 87 | 1007.1 |
| 20260506145537 | 60 | 0 | 3.5 | 8.7 | 0.04 | 0.15 | 0.15 | 87 | 1007.2 |
| 20260506145039 | 60 | 246 | 1.7 | 6.1 | 0.04 | 0.15 | 0.15 | 87 | 1007.4 |
| 20260506144559 | 60 | 190 | 0.9 | 4.3 | 0.04 | 0.14 | 0.14 | 87 | 1007.3 |
| 20260506144038 | 60 | 196 | 1.7 | 4.3 | 0.04 | 0.14 | 0.14 | 87 | 1007.3 |
| 20260506143540 | 60 | 231 | 0.9 | 3.5 | 0.04 | 0.13 | 0.13 | 86 | 1007.5 |
| 20260506143047 | 60 | 267 | 0.9 | 5.2 | 0.05 | 0.13 | 0.13 | 86 | 1007.4 |
| 20260506142540 | 60 | 226 | 1.7 | 6.1 | 0.05 | 0.13 | 0.13 | 86 | 1007.4 |
| 20260506142037 | 60 | 0 | 2.6 | 7.0 | 0.04 | 0.12 | 0.12 | 86 | 1007.3 |
| 20260506141547 | 60 | 182 | 0.9 | 7.8 | 0.04 | 0.12 | 0.12 | 86 | 1007.3 |
| 20260506141038 | 60 | 253 | 1.7 | 10.4 | 0.04 | 0.12 | 0.12 | 86 | 1007.2 |
| 20260506140537 | 60 | 247 | 2.6 | 10.4 | 0.05 | 0.12 | 0.12 | 86 | 1007.0 |
| 20260506140050 | 60 | 168 | 0.9 | 7.8 | 0.04 | 0.11 | 0.11 | 86 | 1007.2 |
| 20260506135538 | 60 | 217 | 0.9 | 7.8 | 0.05 | 0.11 | 0.11 | 85 | 1007.3 |
| 20260506135038 | 60 | 174 | 1.7 | 7.8 | 0.05 | 0.11 | 0.11 | 85 | 1007.4 |
| 20260506134549 | 60 | 153 | 3.5 | 7.8 | 0.05 | 0.10 | 0.10 | 85 | 1007.4 |
| 20260506134038 | 60 | 142 | 1.7 | 7.8 | 0.06 | 0.10 | 0.10 | 84 | 1007.3 |
| 20260506133538 | 60 | 165 | 2.6 | 6.1 | 0.04 | 0.08 | 0.08 | 84 | 1007.4 |
| 20260506133050 | 60 | 173 | 1.7 | 5.2 | 0.05 | 0.08 | 0.08 | 84 | 1007.5 |
| 20260506132541 | 60 | 0 | 1.7 | 5.2 | 0.05 | 0.08 | 0.08 | 83 | 1007.5 |
| 20260506132036 | 60 | 170 | 0.9 | 5.2 | 0.05 | 0.08 | 0.08 | 83 | 1007.5 |
| 20260506131557 | 60 | 180 | 1.7 | 6.1 | 0.06 | 0.08 | 0.08 | 83 | 1007.6 |
| 20260506131038 | 60 | 199 | 0.9 | 6.1 | 0.06 | 0.08 | 0.08 | 83 | 1007.6 |
| 20260506130540 | 61 | 169 | 2.6 | 6.1 | 0.05 | 0.07 | 0.07 | 82 | 1007.5 |
| 20260506130049 | 61 | 0 | 1.7 | 3.5 | 0.05 | 0.07 | 0.07 | 81 | 1007.7 |
| 20260506125538 | 61 | 0 | 0.9 | 3.5 | 0.05 | 0.06 | 0.06 | 81 | 1007.6 |
| 20260506125039 | 61 | 168 | 0.0 | 5.2 | 0.04 | 0.05 | 0.05 | 81 | 1007.8 |
| 20260506124547 | 61 | 172 | 0.9 | 7.0 | 0.04 | 0.05 | 0.05 | 80 | 1007.8 |
| 20260506124037 | 61 | 167 | 1.7 | 7.0 | 0.03 | 0.04 | 0.04 | 79 | 1007.9 |
| 20260506123537 | 62 | 227 | 0.9 | 7.0 | 0.04 | 0.04 | 0.04 | 79 | 1008.0 |
| 20260506123052 | 62 | 148 | 2.6 | 7.8 | 0.03 | 0.03 | 0.03 | 77 | 1008.0 |
| 20260506122547 | 62 | 0 | 1.7 | 7.8 | 0.03 | 0.03 | 0.03 | 77 | 1008.0 |
| 20260506122040 | 62 | 189 | 2.6 | 7.8 | 0.03 | 0.03 | 0.03 | 76 | 1008.0 |
| 20260506121547 | 63 | 209 | 2.6 | 7.0 | 0.02 | 0.02 | 0.02 | 75 | 1008.1 |
| 20260506121041 | 63 | 164 | 1.7 | 6.1 | 0.02 | 0.02 | 0.02 | 74 | 1007.9 |
| 20260506120538 | 63 | 0 | 0.0 | 4.3 | 0.02 | 0.02 | 0.02 | 74 | 1007.9 |
| 20260506120053 | 63 | 179 | 0.9 | 6.1 | 0.02 | 0.02 | 0.02 | 73 | 1007.8 |
| 20260506115539 | 64 | 236 | 0.9 | 6.1 | 0.01 | 0.01 | 0.01 | 71 | 1007.8 |
| 20260506115039 | 64 | 150 | 0.9 | 5.2 | 0.01 | 0.01 | 0.01 | 71 | 1007.7 |
| 20260506114554 | 65 | 149 | 0.9 | 4.3 | 0.01 | 0.01 | 0.01 | 69 | 1007.7 |
| 20260506114037 | 65 | 242 | 1.7 | 5.2 | 0.00 | 0.00 | 0.00 | 67 | 1007.7 |
| 20260506113538 | 66 | 240 | 1.7 | 7.0 | 0.00 | 0.00 | 0.00 | 66 | 1007.5 |
| 20260506113045 | 66 | 142 | 1.7 | 13.0 | 0.00 | 0.00 | 0.00 | 64 | 1007.5 |
| 20260506112539 | 66 | 160 | 5.2 | 13.0 | 0.00 | 0.00 | 0.00 | 63 | 1007.4 |
| 20260506112036 | 66 | 160 | 2.6 | 8.7 | 0.00 | 0.00 | 0.00 | 62 | 1007.4 |
| 20260506111547 | 67 | 165 | 3.5 | 10.4 | 0.00 | 0.00 | 0.00 | 61 | 1007.3 |
| 20260506111037 | 67 | 192 | 2.6 | 10.4 | 0.00 | 0.00 | 0.00 | 60 | 1007.2 |
| 20260506110538 | 67 | 183 | 1.7 | 13.0 | 0.00 | 0.00 | 0.00 | 59 | 1007.2 |
| 20260506110048 | 67 | 194 | 2.6 | 13.0 | 0.00 | 0.00 | 0.00 | 58 | 1007.0 |
| 20260506105540 | 67 | 221 | 2.6 | 10.4 | 0.00 | 0.00 | 0.00 | 58 | 1006.9 |
| 20260506105039 | 67 | 163 | 3.5 | 12.2 | 0.00 | 0.00 | 0.00 | 57 | 1006.8 |
| 20260506104551 | 67 | 175 | 3.5 | 12.2 | 0.00 | 0.00 | 0.00 | 57 | 1006.6 |
| 20260506104037 | 67 | 200 | 3.5 | 12.2 | 0.00 | 0.00 | 0.00 | 57 | 1006.6 |
| 20260506103537 | 67 | 179 | 3.5 | 9.6 | 0.00 | 0.00 | 0.00 | 56 | 1006.7 |
| 20260506103052 | 68 | 161 | 2.6 | 9.6 | 0.00 | 0.00 | 0.00 | 56 | 1006.5 |
| 20260506102538 | 68 | 185 | 5.2 | 10.4 | 0.00 | 0.00 | 0.00 | 56 | 1006.3 |
| 20260506102039 | 68 | 184 | 3.5 | 10.4 | 0.00 | 0.00 | 0.00 | 56 | 1006.3 |
| 20260506101547 | 68 | 165 | 3.5 | 7.0 | 0.00 | 0.00 | 0.00 | 56 | 1006.4 |
| 20260506101038 | 68 | 161 | 1.7 | 8.7 | 0.00 | 0.00 | 0.00 | 55 | 1006.4 |
| 20260506100537 | 68 | 174 | 3.5 | 8.7 | 0.00 | 0.00 | 0.00 | 55 | 1006.4 |
| 20260506100103 | 68 | 167 | 2.6 | 11.3 | 0.00 | 0.00 | 0.00 | 55 | 1006.4 |
| 20260506095538 | 68 | 159 | 2.6 | 11.3 | 0.00 | 0.00 | 0.00 | 54 | 1006.2 |
| 20260506095038 | 68 | 236 | 3.5 | 11.3 | 0.00 | 0.00 | 0.00 | 54 | 1006.2 |
| 20260506094549 | 68 | 181 | 1.7 | 11.3 | 0.00 | 0.00 | 0.00 | 54 | 1006.5 |
| 20260506094037 | 68 | 194 | 2.6 | 11.3 | 0.00 | 0.00 | 0.00 | 53 | 1006.5 |
| 20260506093536 | 68 | 140 | 2.6 | 10.4 | 0.00 | 0.00 | 0.00 | 53 | 1006.4 |
| 20260506093049 | 69 | 215 | 2.6 | 10.4 | 0.00 | 0.00 | 0.00 | 53 | 1006.4 |
| 20260506092538 | 69 | 168 | 2.6 | 9.6 | 0.00 | 0.00 | 0.00 | 52 | 1006.5 |
| 20260506092040 | 69 | 209 | 2.6 | 9.6 | 0.00 | 0.00 | 0.00 | 52 | 1006.4 |
| 20260506091553 | 69 | 181 | 3.5 | 8.7 | 0.00 | 0.00 | 0.00 | 52 | 1006.4 |
| 20260506091039 | 69 | 229 | 2.6 | 13.9 | 0.00 | 0.00 | 0.00 | 51 | 1006.6 |
| 20260506090537 | 69 | 175 | 2.6 | 13.9 | 0.00 | 0.00 | 0.00 | 51 | 1006.7 |
| 20260506090048 | 69 | 135 | 4.3 | 9.6 | 0.00 | 0.00 | 0.00 | 51 | 1006.5 |
| 20260506085537 | 69 | 176 | 1.7 | 10.4 | 0.00 | 0.00 | 0.00 | 50 | 1006.5 |
| 20260506085037 | 69 | 178 | 2.6 | 10.4 | 0.00 | 0.00 | 0.00 | 50 | 1006.5 |
| 20260506084555 | 69 | 196 | 1.7 | 9.6 | 0.00 | 0.00 | 0.00 | 50 | 1006.6 |
| 20260506084037 | 69 | 55 | 3.5 | 9.6 | 0.00 | 0.00 | 0.00 | 49 | 1006.5 |
| 20260506083539 | 69 | 226 | 2.6 | 7.8 | 0.00 | 0.00 | 0.00 | 49 | 1006.6 |
| 20260506083046 | 69 | 200 | 0.9 | 7.8 | 0.00 | 0.00 | 0.00 | 49 | 1006.6 |
| 20260506082537 | 69 | 162 | 1.7 | 7.0 | 0.00 | 0.00 | 0.00 | 48 | 1006.7 |
| 20260506082040 | 69 | 201 | 1.7 | 5.2 | 0.00 | 0.00 | 0.00 | 48 | 1006.6 |
| 20260506081545 | 69 | 180 | 1.7 | 5.2 | 0.00 | 0.00 | 0.00 | 48 | 1006.6 |
| 20260506081039 | 69 | 211 | 0.9 | 6.1 | 0.00 | 0.00 | 0.00 | 48 | 1006.7 |
| 20260506080538 | 69 | 0 | 1.7 | 8.7 | 0.00 | 0.00 | 0.00 | 47 | 1006.7 |
| 20260506073045 | 70 | 184 | 1.7 | 11.3 | 0.00 | 0.00 | 0.00 | 46 | 1006.9 |
| 20260506072537 | 70 | 151 | 2.6 | 11.3 | 0.00 | 0.00 | 0.00 | 45 | 1006.8 |
| 20260506072037 | 70 | 207 | 2.6 | 12.2 | 0.00 | 0.00 | 0.00 | 45 | 1006.9 |
| 20260506071552 | 70 | 180 | 5.2 | 12.2 | 0.00 | 0.00 | 0.00 | 45 | 1006.9 |
| 20260506071038 | 70 | 149 | 1.7 | 10.4 | 0.00 | 0.00 | 0.00 | 45 | 1007.0 |
| 20260506070541 | 70 | 179 | 1.7 | 12.2 | 0.00 | 0.00 | 0.00 | 44 | 1007.0 |
| 20260506062040 | 71 | 181 | 0.9 | 8.7 | 0.00 | 0.00 | 0.00 | 42 | 1007.5 |
| 20260506061549 | 71 | 139 | 2.6 | 9.6 | 0.00 | 0.00 | 0.00 | 42 | 1007.6 |
| 20260506061040 | 71 | 177 | 2.6 | 9.6 | 0.00 | 0.00 | 0.00 | 42 | 1007.6 |
| 20260506060539 | 71 | 214 | 1.7 | 8.7 | 0.00 | 0.00 | 0.00 | 42 | 1007.7 |
| 20260506051039 | 70 | 252 | 1.7 | 7.0 | 0.00 | 0.00 | 0.00 | 41 | 1008.0 |
| 20260506050543 | 70 | 182 | 1.7 | 7.0 | 0.00 | 0.00 | 0.00 | 41 | 1008.1 |
| 20260506045038 | 70 | 191 | 2.6 | 9.6 | 0.00 | 0.00 | 0.00 | 41 | 1008.1 |
| 20260506044549 | 69 | 168 | 1.7 | 7.8 | 0.00 | 0.00 | 0.00 | 43 | 1008.0 |
| 20260506044036 | 69 | 0 | 2.6 | 7.8 | 0.00 | 0.00 | 0.00 | 43 | 1008.0 |
| 20260506043538 | 68 | 227 | 0.9 | 9.6 | 0.00 | 0.00 | 0.00 | 45 | 1008.1 |
| 20260506043049 | 67 | 247 | 2.6 | 9.6 | 0.00 | 0.00 | 0.00 | 46 | 1008.0 |
| 20260506042538 | 66 | 216 | 3.5 | 9.6 | 0.00 | 0.00 | 0.00 | 48 | 1007.8 |
| 20260506042038 | 66 | 0 | 0.0 | 5.2 | 0.00 | 0.00 | 0.00 | 52 | 1008.0 |
| 20260506041553 | 65 | 0 | 0.0 | 5.2 | 0.00 | 0.00 | 0.00 | 53 | 1008.0 |
| 20260506041038 | 65 | 202 | 0.0 | 2.6 | 0.00 | 0.00 | 0.00 | 54 | 1008.1 |
| 20260506040538 | 64 | 0 | 0.0 | 5.2 | 0.00 | 0.00 | 0.00 | 54 | 1008.1 |
| 20260506040105 | 63 | 186 | 0.0 | 5.2 | 0.00 | 0.00 | 0.00 | 56 | 1008.2 |
| 20260506035538 | 62 | 217 | 1.7 | 5.2 | 0.00 | 0.00 | 0.00 | 58 | 1008.1 |
| 20260506035038 | 61 | 0 | 0.0 | 3.5 | 0.00 | 0.00 | 0.00 | 64 | 1008.2 |
| 20260506034549 | 61 | 157 | 0.0 | 3.5 | 0.00 | 0.00 | 0.00 | 66 | 1008.2 |
| 20260506034038 | 61 | 0 | 0.0 | 1.7 | 0.00 | 0.00 | 0.00 | 68 | 1008.0 |
| 20260506033539 | 60 | 0 | 0.0 | 0.9 | 0.00 | 0.00 | 0.00 | 68 | 1008.1 |
| 20260506033055 | 60 | 0 | 0.0 | 3.5 | 0.00 | 0.00 | 0.00 | 68 | 1008.2 |
| 20260506032538 | 60 | 0 | 0.9 | 3.5 | 0.00 | 0.00 | 0.00 | 70 | 1008.1 |
| 20260506032043 | 59 | 0 | 0.0 | 0.9 | 0.00 | 0.00 | 0.00 | 70 | 1008.1 |
| 20260506031601 | 59 | 0 | 0.0 | 1.7 | 0.00 | 0.00 | 0.00 | 71 | 1008.2 |
| 20260506031038 | 59 | 0 | 0.0 | 1.7 | 0.00 | 0.00 | 0.00 | 72 | 1008.2 |